sat.trackr.live / text

‹ back to catalog

STARLINK-33621

NORAD 63375 · 2025-063N

PAYLOAD ACTIVE UNKNOWN

§ Identity

Operator
Country
US
Launch date
2025-03-26
Launch site
AFWTR
Launch vehicle
Mass (kg)
RCS (m²)

Purposes: comms

External: N2YO · Heavens-Above · Gunter

§ Orbital elements

Epoch: 2026-05-25T03:40:32.646432Z

Period
94.10 min
Inclination
53.1597°
Eccentricity
0.0001186
Mean motion
15.30216484 rev/d
Perigee alt
474.4 km
Apogee alt
476.0 km
Semi-major
6,853.3 km
B*
8.0646e-4
RAAN
54.6462°
Arg perigee
85.1931°
Mean anomaly
274.9205°
Rev number
6,645

§ Raw data

STARLINK-336211 63375U 25063N   26145.15315563  .00023614  00000+0  80646-3 0  99992 63375  53.1597  54.6462 0001186  85.1931 274.9205 15.30216484 66450

JSON: /api/v1/satellites/63375 · /tle

For live sub-satellite position, see the globe view (requires WebGL).

§ Visibility from observer

Set your observer location to see the next 7 days of passes ≥ 10°. The values pass through the URL so the page stays shareable.

No JS? Fill the form by hand. The geolocation button needs JavaScript.